| time (UTC) | temp F | wind direction | speed MPH | gust MPH | rain 1hr in | rain 24hr in | rain mn in | humidity % | barometer mb |
| 20260506121320 | 68 | 157 | 0.0 | 0.0 | 0.00 | 5.20 | 0.00 | 52 | 999.6 |
| 20260506115319 | 69 | 157 | 0.0 | 0.0 | 0.00 | 1.04 | 0.00 | 53 | 999.7 |
| 20260506114309 | 69 | 157 | 0.0 | 0.0 | 0.00 | 1.04 | 0.00 | 53 | 999.6 |
| 20260506103235 | 67 | 225 | 0.0 | 0.0 | 0.00 | 1.04 | 0.00 | 57 | 1000.5 |
| 20260506100229 | 66 | 112 | 0.0 | 0.0 | 0.00 | 1.04 | 0.00 | 62 | 1000.7 |
| 20260506094223 | 64 | 180 | 0.0 | 1.0 | 0.00 | 1.04 | 0.00 | 66 | 1000.6 |
| 20260506091210 | 60 | 202 | 0.0 | 0.0 | 1.04 | 1.04 | 0.00 | 69 | 1000.7 |
| 20260506085157 | 60 | 202 | 0.0 | 0.0 | 1.04 | 1.04 | 0.00 | 70 | 1000.5 |
| 20260506082150 | 58 | 202 | 0.0 | 0.0 | 1.04 | 1.04 | 0.00 | 73 | 1000.8 |
| 20260506073123 | 57 | 202 | 0.0 | 0.0 | 0.00 | 5.20 | 0.00 | 77 | 1001.1 |
| 20260506072123 | 56 | 202 | 0.0 | 0.0 | 0.00 | 5.20 | 0.00 | 78 | 1000.9 |
| 20260506062107 | 50 | 225 | 0.0 | 0.0 | 0.00 | 5.20 | 0.00 | 82 | 1001.0 |
| 20260506041015 | 44 | 225 | 0.0 | 0.0 | 0.00 | 5.20 | 0.00 | 79 | 1001.7 |
| 20260505225811 | 54 | 225 | 0.0 | 0.0 | 0.00 | 5.20 | 0.00 | 72 | 1002.7 |
| 20260505222753 | 55 | 225 | 0.0 | 2.0 | 0.00 | 5.20 | 0.00 | 72 | 1002.8 |
| 20260505221752 | 55 | 247 | 0.0 | 0.0 | 0.00 | 5.20 | 0.00 | 72 | 1002.6 |
| 20260505200707 | 57 | 270 | 0.0 | 0.0 | 0.00 | 5.20 | 0.00 | 71 | 1002.3 |
| 20260505192648 | 57 | 270 | 0.0 | 0.0 | 0.00 | 5.20 | 0.00 | 71 | 1001.8 |
| 20260505184625 | 58 | 270 | 0.0 | 0.0 | 0.00 | 5.20 | 0.00 | 70 | 1001.6 |
| 20260505165551 | 59 | 270 | 0.0 | 0.0 | 0.00 | 1.04 | 0.00 | 69 | 1000.9 |
| 20260505164541 | 59 | 270 | 0.0 | 0.0 | 0.00 | 1.04 | 0.00 | 69 | 1001.0 |
| 20260505162539 | 60 | 270 | 0.0 | 0.0 | 0.00 | 1.04 | 0.00 | 68 | 1001.0 |